Location: Cahas Mountain Overlook
(37.0833°N, 80.1000°W)
Time: 19:39:40
(UTC-04:00)

Explorer 7 - Pass Details

Date: 08 February 2026
Orbit: 430 x 541 km, 50.2° (Epoch: 13 March)

Event Time Altitude Azimuth Distance (km) Brightness Sun altitude
Rises 23:40:42 0° 314° (NW) 2,640 - -64.6°
Reaches altitude 10° 23:43:14 10° 329° (NNW) 1,769 - -64.8°
Maximum altitude 23:46:31 23° 24° (NNE) 1,152 - -65.2°
Drops below altitude 10° 23:49:52 10° 78° (ENE) 1,801 - -65.5°
Sets 23:52:27 0° 93° (E) 2,700 - -65.7°
